Location: Abundant Grace Fellowship
(35.0349°N, 90.0924°W)
Time: 21:59:40
(UTC+00:00)

Cosmos 1697 Rocket - Pass Details

Date: 18 January 2026
Orbit: 830 x 844 km, 71.0° (Epoch: 10 February)

Event Time Altitude Azimuth Distance (km) Brightness Sun altitude
Rises 02:03:18 0° 332° (NNW) 3,404 6.1 -34.3°
Reaches altitude 10° 02:05:49 10° 328° (NNW) 2,466 5.4 -34.8°
Enters shadow 02:08:54 31° 310° (NW) 1,435 4.1 -35.4°
